Location: Fort Wayne
(41.1310°N, 85.1290°W)
Time: 11:40:02
(UTC-05:00)

Courier 1B Rocket - All Passes

Search period start: 01 March 2015 00:00
Search period end: 11 March 2015 01:00
Orbit: 921 x 1202 km, 28.3° (Epoch: 26 February)

Date Brightness Start Highest point End Pass type
(mag) Time Alt. Az. Time Alt. Az. Time Alt. Az.
01 Mar - 00:49:16 10° SW 00:55:54 31° S 01:02:24 10° ESE night (unlit)
01 Mar - 02:42:37 10° WSW 02:48:48 26° SSW 02:54:44 10° SE night (unlit)
01 Mar - 04:38:00 10° SW 04:41:26 13° SSW 04:44:34 10° S visible
01 Mar - 21:57:16 10° SSW 22:02:06 18° SSE 22:07:07 10° ESE visible
01 Mar - 23:48:26 10° SW 23:54:56 29° S 00:01:25 10° ESE night (unlit)
02 Mar - 01:41:21 10° WSW 01:47:53 29° S 01:54:14 10° SE night (unlit)
02 Mar - 03:35:42 10° WSW 03:40:39 18° SSW 03:45:20 10° SSE visible
02 Mar - 20:57:57 10° S 21:01:15 13° SSE 21:04:50 10° SE visible
02 Mar - 22:47:49 10° SW 22:53:58 26° SSE 23:00:14 10° ESE night (unlit)
03 Mar - 00:40:15 10° WSW 00:46:55 31° S 00:53:30 10° SE night (unlit)
03 Mar - 02:33:59 10° WSW 02:39:48 23° SSW 02:45:23 10° SSE night (unlit)
03 Mar - 21:47:28 10° SSW 21:53:04 22° SSE 21:58:51 10° ESE visible
03 Mar - 23:39:20 10° SW 23:45:57 31° S 23:52:35 10° ESE night (unlit)
04 Mar - 01:32:36 10° WSW 01:38:53 27° SSW 01:45:03 10° SE night (unlit)
04 Mar - 03:27:52 10° SW 03:31:36 14° SSW 03:35:03 10° S night (unlit)
04 Mar - 20:47:33 10° SSW 20:52:12 18° SSE 20:57:07 10° ESE visible
04 Mar - 22:38:35 10° SW 22:44:59 29° S 22:51:31 10° ESE visible
05 Mar - 00:31:24 10° WSW 00:37:57 30° S 00:44:26 10° SE night (unlit)
05 Mar - 02:25:39 10° WSW 02:30:46 19° SSW 02:35:39 10° SSE night (unlit)
05 Mar - 19:48:22 10° S 19:51:24 13° SSE 19:54:44 10° SE visible
05 Mar - 21:38:04 10° SW 21:44:02 26° SSE 21:50:16 10° ESE visible
05 Mar - 23:30:24 10° WSW 23:36:58 31° S 23:43:37 10° SE night (unlit)
06 Mar - 01:24:01 10° WSW 01:29:53 23° SSW 01:35:37 10° SSE night (unlit)
06 Mar - 20:37:49 10° SSW 20:43:10 22° SSE 20:48:48 10° ESE visible
06 Mar - 22:29:33 10° SW 22:36:00 31° S 22:42:38 10° ESE visible
07 Mar - 00:22:42 10° WSW 00:28:57 27° SSW 00:35:11 10° SE night (unlit)
07 Mar - 02:17:51 10° SW 02:21:43 14° SSW 02:25:18 10° S night (unlit)
07 Mar - 19:38:00 10° SSW 19:42:21 17° SSE 19:47:01 10° ESE visible
07 Mar - 21:28:54 10° SW 21:35:04 29° S 21:41:29 10° ESE visible
07 Mar - 23:21:36 10° WSW 23:28:00 29° S 23:34:30 10° SE visible
08 Mar - 01:15:44 10° WSW 01:20:51 19° SSW 01:25:48 10° SSE night (unlit)
08 Mar - 19:39:00 10° S 19:41:36 12° SSE 19:44:31 10° SE daylight
08 Mar - 21:28:28 10° SW 21:34:10 25° SSE 21:40:12 10° ESE visible
08 Mar - 23:20:41 10° WSW 23:27:02 30° S 23:33:37 10° SE visible
09 Mar - 01:14:11 10° WSW 01:19:56 23° SSW 01:25:40 10° SSE night (unlit)
09 Mar - 20:28:19 10° SSW 20:33:21 21° SSE 20:38:42 10° ESE visible
09 Mar - 22:19:56 10° SW 22:26:06 30° S 22:32:34 10° ESE visible
10 Mar - 00:12:58 10° WSW 00:19:01 26° SSW 00:25:11 10° SE visible
10 Mar - 02:08:03 10° SW 02:11:48 14° SSW 02:15:19 10° S night (unlit)
10 Mar - 19:28:36 10° SSW 19:32:36 16° SSE 19:36:54 10° ESE daylight
10 Mar - 21:19:22 10° SW 21:25:13 28° S 21:31:24 10° ESE visible
10 Mar - 23:11:57 10° WSW 23:18:05 28° S 23:24:27 10° SE visible
